Wind_Speed
25 25 26 26 27 27 28 28 27 27 28 29 30 31 31 32 34 34 35 35 36 37 36 37 37 37 38 39 39 39 39 39 39 39 39 39 40 40 40 40 41 41 41 41
26 25 26 26 27 27 27 28 28 28 28 29 30 30 31 31 33 34 35 35 35 36 37 37 37 38 38 38 39 39 40 40 39 40 40 40 41 42 42 42 42 42 42 42
26 25 26 26 27 27 27 27 27 28 28 29 30 30 30 31 32 33 35 35 36 37 37 38 38 38 38 38 39 39 40 40 40 41 41 41 42 42 42 42 42 42 43 43
24 24 25 25 25 26 26 26 27 28 28 29 29 31 29 31 32 33 34 35 36 37 37 38 38 38 38 38 39 39 40 41 41 42 42 42 42 43 42 42 43 43 43 43
23 23 23 23 23 25 26 26 26 27 28 29 28 30 30 30 31 33 34 35 36 36 37 37 37 37 38 38 39 39 40 41 41 42 43 43 43 43 43 43 44 43 43 44
23 22 22 22 22 23 24 25 26 27 27 28 27 29 30 29 29 30 31 33 35 36 36 37 37 37 38 38 39 39 40 41 41 42 42 43 44 44 44 44 44 44 44 44
23 23 23 22 23 23 24 24 25 26 26 27 26 28 28 27 26 27 29 30 32 34 35 36 36 37 37 38 38 39 40 41 41 42 42 43 43 44 44 44 44 44 44 43
24 23 24 24 23 24 24 24 24 25 26 26 26 27 26 26 25 26 27 29 30 32 33 33 35 36 36 37 38 39 40 40 41 42 42 42 43 43 44 44 44 44 44 43
25 25 25 24 24 24 24 24 24 26 27 27 26 26 26 26 26 26 27 28 29 30 31 32 34 35 35 37 38 39 39 40 40 41 42 42 42 43 44 43 44 43 43 43
25 25 24 24 24 24 24 25 25 25 26 27 26 26 26 25 25 26 27 28 28 29 30 31 32 34 34 35 36 37 38 38 39 40 41 42 42 42 43 44 44 43 42 43
25 25 24 24 24 24 24 24 25 25 26 27 28 27 26 26 26 26 27 27 28 29 29 30 31 32 33 34 35 36 37 38 38 39 39 40 40 41 41 42 43 42 43 42
25 26 26 25 25 24 24 24 24 25 26 27 28 28 26 27 27 27 27 27 28 29 29 30 31 32 34 34 35 36 37 37 38 38 37 37 39 39 40 40 41 41 41 40
26 27 28 27 27 26 25 25 25 26 27 28 28 28 27 27 27 27 26 26 26 27 29 30 31 33 33 34 34 35 35 36 37 36 37 37 37 37 38 39 40 40 40 40
28 29 28 28 28 27 26 26 26 28 29 29 28 27 27 26 26 26 26 26 27 27 28 30 31 32 33 33 33 33 34 35 35 35 35 36 36 36 37 37 38 38 39 39
29 29 29 29 28 28 27 26 26 27 28 29 27 27 26 26 26 25 26 26 26 27 28 29 30 31 32 32 33 33 34 34 34 35 35 35 35 35 36 36 36 37 37 38
29 30 30 29 28 28 28 26 27 27 27 27 27 26 26 26 26 26 26 26 26 27 28 28 29 30 31 31 32 33 33 34 34 35 36 35 35 35 35 35 36 36 36 36
29 29 29 29 28 28 28 27 27 27 27 27 27 26 26 26 26 26 26 26 26 26 28 28 28 29 29 30 31 32 32 33 34 34 35 35 35 35 35 35 35 35 35 35
28 28 28 29 28 29 28 27 27 27 26 27 27 26 26 26 26 25 26 27 27 27 27 28 28 28 28 28 29 30 31 31 32 32 33 33 33 32 33 34 34 35 35 35
27 28 28 28 29 29 27 27 27 26 25 25 25 25 26 26 26 26 26 27 27 27 27 27 27 27 27 27 27 28 29 30 30 29 29 30 31 31 31 32 32 33 34 34
27 27 28 28 29 29 27 27 27 26 25 24 25 25 25 26 27 26 26 26 26 27 27 27 26 26 26 26 26 26 27 27 27 27 28 28 29 29 30 30 31 32 32 33
26 26 27 28 28 28 26 26 26 26 25 25 25 26 26 27 27 27 27 27 26 27 27 27 26 25 25 25 25 25 25 25 25 26 27 27 28 28 28 29 30 31 31 31
25 26 26 27 27 26 26 26 26 25 25 25 25 26 27 27 27 27 27 27 26 26 26 26 25 25 24 24 24 24 24 24 24 25 26 27 28 28 28 28 29 29 30 30
25 25 25 26 26 25 25 25 25 25 26 26 26 26 26 27 27 27 28 27 26 25 25 25 24 24 24 24 24 24 24 24 25 25 26 27 27 28 28 28 29 29 29 28
26 26 26 26 25 25 25 24 24 24 25 25 26 26 26 27 27 27 27 26 25 24 23 24 24 24 24 24 25 25 25 24 25 25 26 26 26 27 27 28 28 28 27 27
27 27 27 25 24 24 24 23 23 24 25 25 26 26 26 26 26 26 25 25 24 24 23 23 23 24 25 25 26 26 26 26 26 26 26 26 26 27 27 26 27 27 27 27
25 26 25 24 24 24 23 23 24 24 24 24 25 25 25 25 25 24 24 24 24 24 23 23 23 23 24 24 24 25 25 26 26 26 26 26 26 26 26 25 25 26 26 27
Wind_Direction
282 277 274 272 272 271 267 263 258 258 257 256 256 255 254 252 251 250 249 248 248 249 250 251 251 251 253 253 254 255 255 256 257 257 257 259 260 260 262 263 264 265 267 269
281 277 275 272 272 269 266 262 261 261 261 259 258 257 256 254 253 251 251 250 251 251 251 251 251 252 254 255 254 254 255 256 256 257 257 258 259 261 263 264 264 265 267 269
284 279 276 274 273 268 264 263 262 263 263 263 262 259 257 256 255 254 253 253 253 253 253 253 253 253 254 254 254 254 255 256 256 257 258 259 260 261 263 264 265 266 267 269
285 282 279 277 273 267 264 264 265 266 266 265 264 264 258 258 257 256 256 255 255 254 254 254 254 254 255 255 255 255 255 256 257 258 259 258 260 261 262 264 265 266 267 269
287 285 283 279 275 268 267 268 268 269 269 267 266 267 264 261 260 258 258 257 256 255 255 255 255 256 256 256 256 256 257 258 259 260 261 260 260 261 262 263 265 266 267 269
287 285 283 281 277 273 271 271 271 271 271 271 269 269 268 264 262 260 259 258 258 257 257 256 256 256 256 256 256 257 258 259 260 261 262 262 262 263 263 264 266 267 268 269
287 284 284 284 279 274 273 272 273 273 273 273 272 271 270 266 264 262 261 260 260 259 259 258 257 257 256 256 256 257 257 258 260 260 262 263 263 263 263 264 265 266 267 268
290 287 284 283 281 277 274 272 273 274 275 275 274 273 272 269 267 265 263 262 261 260 259 259 258 257 256 256 257 257 258 259 260 261 262 263 263 262 262 263 265 266 267 267
289 287 284 281 279 276 273 271 272 274 275 276 275 275 274 273 270 268 266 265 264 261 259 260 259 257 257 256 257 258 259 259 260 261 262 262 262 262 262 264 265 267 267 266
286 286 283 281 278 278 275 273 273 272 274 276 275 276 277 274 272 271 269 267 265 263 262 261 260 259 258 258 258 258 259 260 261 261 262 262 262 263 263 264 265 266 267 267
287 285 283 280 280 280 276 273 271 270 271 274 277 277 277 276 274 273 271 268 267 267 265 263 262 261 260 260 260 260 261 260 261 262 262 261 262 263 264 265 266 267 267 267
286 285 282 279 279 278 274 272 270 269 271 273 277 277 277 276 276 274 271 269 269 268 267 265 263 262 262 262 262 261 261 260 261 262 262 263 263 263 264 264 265 267 267 267
284 284 284 280 278 277 271 268 269 269 270 272 275 278 279 278 277 275 273 271 271 269 269 268 267 265 264 264 264 263 261 260 259 261 263 264 264 265 266 266 267 268 268 268
280 280 281 280 278 276 272 270 270 269 270 272 274 277 278 279 279 276 273 271 272 271 271 270 269 268 266 264 264 263 261 261 261 262 263 265 266 267 267 267 269 269 268 269
279 280 280 278 275 273 272 271 270 270 271 273 274 276 277 278 277 273 272 272 274 275 275 273 272 271 269 266 264 262 261 261 261 262 264 266 266 267 268 269 268 268 269 270
278 279 279 277 274 271 269 269 270 271 272 273 275 275 276 276 275 273 273 274 276 278 278 277 275 273 272 268 265 264 262 260 261 262 264 265 266 267 268 267 267 268 270 271
276 277 278 277 274 271 267 268 271 273 273 274 274 274 274 273 274 275 275 276 277 279 280 278 276 275 274 270 266 265 263 262 262 264 265 265 266 267 266 266 268 269 270 271
277 275 277 277 274 271 271 270 273 275 274 274 273 273 272 273 274 275 277 278 277 278 279 279 278 276 274 272 269 267 265 264 264 265 265 266 266 267 268 269 269 270 271 271
275 275 277 277 274 274 272 273 274 275 274 273 273 271 272 274 275 276 278 278 278 277 278 280 279 277 274 273 271 268 267 266 266 266 266 267 267 268 269 270 271 271 272 273
273 275 276 276 275 276 275 274 274 273 272 272 272 272 274 275 277 279 279 278 277 277 278 279 279 277 275 273 272 270 268 267 267 267 267 268 269 270 270 272 273 273 273 273
271 272 274 276 276 276 275 275 274 273 274 274 273 274 275 277 278 279 279 279 278 278 277 278 277 277 275 274 272 271 269 267 268 268 269 270 270 271 271 272 273 273 274 273
271 272 274 275 276 275 274 273 273 273 273 274 275 276 277 279 280 280 280 280 280 280 278 276 274 275 275 274 272 271 270 268 269 270 270 271 270 271 271 272 273 274 275 274
270 273 274 275 276 275 273 272 271 272 273 275 277 277 278 280 281 281 281 282 282 280 278 275 274 274 274 274 272 270 271 269 271 272 271 271 271 272 273 274 274 274 275 275
270 271 274 276 274 273 272 270 270 272 274 275 276 277 279 280 280 280 279 280 281 281 279 277 276 275 274 273 271 269 270 270 270 273 273 273 274 275 275 275 276 275 275 275
272 273 275 275 274 272 270 271 271 272 274 276 277 278 279 279 279 278 278 279 280 280 280 279 277 275 274 274 273 271 270 270 272 273 273 275 276 277 277 277 275 274 273 275
272 274 275 274 273 272 271 271 270 271 273 276 279 279 279 279 279 278 278 279 280 280 279 279 279 278 276 276 273 271 271 271 272 274 275 276 277 276 277 276 276 275 276 277
Height
5701 5701 5699 5699 5698 5698 5697 5698 5699 5699 5699 5700 5701 5702 5704 5705 5707 5709 5711 5712 5714 5716 5718 5719 5721 5723 5725 5727 5729 5731 5732 5734 5735 5736 5737 5738 5739 5740 5741 5741 5741 5742 5742 5742
5695 5694 5693 5692 5691 5691 5691 5691 5692 5692 5692 5692 5694 5695 5696 5697 5699 5700 5702 5704 5705 5707 5709 5711 5712 5714 5716 5718 5719 5721 5723 5724 5726 5727 5727 5729 5730 5730 5731 5731 5731 5732 5732 5732
5688 5688 5686 5685 5684 5684 5684 5684 5685 5685 5685 5685 5686 5687 5689 5690 5690 5692 5693 5694 5696 5698 5699 5701 5703 5705 5706 5708 5710 5711 5713 5714 5716 5717 5718 5719 5719 5720 5721 5721 5722 5722 5722 5722
5681 5680 5679 5679 5678 5677 5677 5678 5677 5678 5678 5678 5679 5678 5682 5682 5682 5683 5684 5685 5686 5688 5690 5692 5693 5695 5697 5698 5700 5701 5703 5704 5705 5706 5707 5708 5709 5710 5711 5711 5711 5711 5711 5711
5675 5674 5673 5673 5672 5671 5671 5671 5671 5671 5670 5670 5671 5670 5673 5674 5674 5675 5675 5676 5677 5678 5680 5682 5683 5685 5687 5688 5690 5691 5692 5694 5695 5696 5696 5697 5698 5699 5700 5700 5700 5701 5701 5701
5670 5668 5667 5666 5666 5665 5664 5664 5664 5663 5663 5663 5665 5663 5664 5666 5666 5667 5667 5667 5668 5669 5670 5672 5674 5675 5677 5678 5680 5681 5682 5683 5684 5685 5686 5686 5687 5688 5689 5689 5689 5690 5690 5690
5665 5663 5661 5660 5659 5659 5658 5658 5657 5656 5655 5656 5657 5655 5657 5658 5659 5659 5659 5659 5659 5660 5661 5662 5664 5665 5667 5668 5670 5671 5672 5673 5673 5674 5675 5675 5676 5676 5677 5678 5678 5678 5678 5678
5658 5658 5656 5654 5653 5652 5652 5652 5652 5651 5650 5649 5649 5648 5651 5651 5650 5650 5650 5650 5650 5651 5652 5653 5654 5655 5657 5658 5660 5660 5661 5662 5663 5664 5664 5664 5665 5665 5665 5666 5666 5666 5667 5667
5651 5651 5650 5648 5646 5646 5645 5645 5645 5644 5642 5642 5641 5642 5643 5643 5643 5642 5642 5642 5642 5642 5643 5644 5644 5646 5647 5648 5649 5650 5651 5652 5652 5653 5653 5653 5653 5654 5654 5655 5655 5655 5655 5656
5644 5643 5643 5641 5640 5640 5639 5639 5638 5637 5635 5635 5635 5635 5636 5635 5635 5634 5634 5633 5633 5634 5634 5634 5635 5636 5637 5638 5639 5640 5640 5641 5641 5641 5641 5641 5642 5642 5643 5643 5643 5643 5644 5644
5637 5636 5635 5634 5634 5633 5633 5632 5631 5630 5629 5628 5627 5631 5629 5628 5627 5627 5626 5625 5625 5625 5625 5625 5626 5627 5627 5628 5628 5629 5629 5630 5630 5630 5630 5630 5631 5631 5632 5632 5632 5632 5632 5632
5630 5629 5628 5628 5627 5625 5625 5625 5624 5624 5623 5621 5620 5624 5621 5620 5619 5618 5618 5617 5617 5616 5616 5616 5617 5617 5617 5617 5618 5618 5619 5619 5619 5619 5620 5620 5620 5621 5621 5622 5621 5621 5621 5621
5623 5622 5620 5620 5621 5619 5618 5617 5617 5616 5615 5614 5613 5616 5613 5612 5611 5610 5609 5609 5608 5608 5608 5607 5607 5607 5607 5607 5607 5608 5608 5608 5609 5609 5609 5610 5610 5611 5611 5611 5611 5611 5611 5611
5615 5614 5614 5613 5611 5610 5610 5610 5609 5608 5607 5606 5607 5607 5606 5604 5603 5602 5601 5600 5600 5599 5599 5598 5597 5597 5597 5597 5597 5597 5598 5598 5599 5599 5599 5600 5600 5600 5600 5600 5600 5600 5600 5600
5607 5606 5605 5604 5603 5602 5602 5601 5601 5600 5599 5598 5599 5598 5598 5597 5595 5594 5593 5592 5592 5591 5590 5589 5588 5587 5587 5587 5587 5587 5588 5588 5589 5589 5589 5590 5590 5590 5590 5590 5589 5589 5589 5589
5598 5598 5596 5596 5595 5594 5593 5594 5593 5592 5591 5591 5590 5591 5590 5588 5587 5586 5585 5584 5584 5583 5582 5580 5579 5578 5577 5577 5577 5577 5578 5578 5579 5579 5579 5579 5579 5579 5579 5579 5579 5579 5579 5578
5590 5590 5588 5587 5586 5585 5585 5587 5586 5585 5584 5583 5582 5584 5582 5581 5579 5578 5578 5577 5576 5575 5573 5572 5570 5569 5568 5568 5567 5568 5568 5568 5569 5569 5569 5569 5569 5569 5569 5569 5569 5568 5568 5568
5583 5582 5580 5579 5579 5577 5580 5579 5578 5577 5577 5575 5575 5574 5573 5572 5571 5571 5570 5569 5568 5566 5565 5563 5562 5561 5560 5559 5558 5558 5559 5559 5559 5559 5559 5559 5559 5559 5559 5559 5559 5558 5558 5557
5575 5574 5572 5571 5569 5568 5571 5571 5570 5569 5569 5568 5567 5566 5566 5564 5564 5563 5562 5560 5559 5558 5556 5555 5553 5552 5551 5550 5550 5550 5550 5550 5550 5550 5550 5550 5550 5550 5550 5549 5549 5548 5548 5547
5567 5566 5565 5563 5561 5561 5564 5563 5561 5561 5560 5561 5559 5558 5557 5556 5556 5557 5554 5552 5550 5549 5548 5546 5545 5544 5543 5542 5542 5542 5541 5541 5541 5541 5541 5541 5541 5541 5540 5540 5539 5538 5538 5537
5559 5558 5557 5555 5553 5553 5555 5554 5553 5554 5554 5553 5551 5550 5549 5548 5548 5548 5545 5544 5542 5541 5539 5538 5537 5536 5535 5534 5534 5534 5534 5534 5533 5533 5533 5532 5532 5532 5531 5531 5530 5529 5528 5528
5551 5550 5549 5548 5546 5549 5547 5546 5546 5545 5544 5543 5543 5542 5541 5540 5539 5538 5537 5535 5534 5532 5531 5530 5529 5529 5528 5527 5527 5526 5526 5526 5526 5525 5525 5524 5524 5523 5522 5522 5521 5520 5519 5518
5544 5544 5542 5541 5542 5540 5538 5538 5537 5537 5536 5536 5535 5534 5533 5532 5531 5530 5529 5527 5526 5525 5523 5522 5522 5521 5520 5520 5519 5519 5519 5518 5518 5517 5517 5516 5515 5515 5514 5513 5512 5511 5510 5509
5537 5535 5534 5533 5533 5532 5531 5530 5530 5529 5528 5528 5527 5526 5525 5524 5523 5522 5521 5520 5518 5517 5516 5515 5514 5513 5513 5512 5512 5511 5511 5510 5510 5510 5509 5508 5507 5506 5506 5504 5503 5502 5501 5501
5528 5527 5526 5525 5525 5524 5524 5523 5523 5522 5521 5520 5519 5518 5517 5516 5515 5514 5513 5512 5511 5510 5509 5508 5507 5506 5505 5504 5504 5503 5503 5503 5502 5502 5501 5500 5499 5498 5497 5496 5495 5494 5494 5492
5521 5520 5519 5518 5518 5517 5517 5516 5515 5514 5513 5512 5511 5510 5509 5508 5507 5506 5505 5504 5503 5502 5501 5500 5499 5498 5498 5497 5496 5495 5495 5495 5494 5494 5493 5492 5491 5490 5489 5488 5488 5487 5486 5485